View from above orbital plane
|
View from above satellite
|
Ground track
|
The orbit data is extracted from the following two-line orbital elements,
1 21667U 91059B 21061.52231685 -.00000083 00000-0 -10272-3 0 9996
2 21667 82.9022 80.5652 0022235 79.4242 73.7855 13.75110709481827
Epoch (UTC): | 02 March 2021 12:32:08 |
Eccentricity: | 0.0022235 |
inclination: | 82.9022° |
perigee height: | 965 km |
apogee height: | 997 km |
right ascension of ascending node: | 80.5652° |
argument of perigee: | 79.4242° |
revolutions per day: | 13.75110709 |
mean anomaly at epoch: | 73.7855° |
orbit number at epoch: | 48182 |
The dashed part of the orbit path shows where the satellite is in the earth's shadow,
|
|